Regional Weather Roundup
Issued by NWS

Home | Current Version | Previous Version | Graphics & Text | Print | Product List | Glossary On
Versions: 1 2 3 4 5 6 7 8 9 10 11 12 13 14 15 16 17 18 19 20 21 22 23 24 25 26 27 28 29 30 31 32 33 34 35 36 37 38 39 40 41 42 43 44 45 46 47 48 49 50
000
ASUS43 KIND 240709
RWRIN

WEATHER ROUNDUP FOR INDIANA
NATIONAL WEATHER SERVICE INDIANAPOLIS IN
300 AM EDT TUE MAY 24 2016

NOTE: "FAIR" INDICATES FEW OR NO CLOUDS BELOW 12,000 FEET WITH NO
SIGNIFICANT WEATHER AND/OR OBSTRUCTIONS TO VISIBILITY.

* - STATION DOES NOT REPORT WEATHER SUCH AS PRECIPITATION OR FOG.

+ - STATION NOT QUALITY CONTROLLED BY THE NATIONAL WEATHER SERVICE.
    USE DATA WITH CAUTION...ESPECIALLY DEWPOINT AND RELATIVE
    HUMIDITY OBSERVATIONS.

INZ001>003-010>013-019-020-240800-
NORTHWEST INDIANA

CITY           SKY/WX    TMP DP  RH WIND       PRES   REMARKS
GARY /AIRPORT/ CLEAR     64  48  57 S5        29.97S
KNOX *+        CLEAR     57  28  33 S5        29.98R
LA PORTE +     PTCLDY    57  39  50 CALM      29.99S
MICHIGAN CITY+ CLEAR     63  37  39 S6        29.98S
MONTICELLO +   CLEAR     61  37  39 S3        29.98S
RENSSELAER +   CLEAR     59  39  47 S5        29.99R
VALPARAISO     CLEAR     61  38  42 S5        29.99R

$$

LMZ046-743>745-240800-
SOUTHERN LAKE MICHIGAN

STATION/POSITION TIME  TEMP    WIND        PRES    WAVE
                       AIR SEA DIR/SP/G            HT
                 (UTC) (F)     (DEG/KT/KT) (MB)    (FT)
BURNS HARBOR     0700   65     180/  9/ 17 1015.2R
MICHIGAN CITY    0600   67     140/ 11/ 14   N/A
5NW MICH CITY    0700   61 56  190/  6/  8   N/A     1

$$

INZ004-005-014>016-021>024-240800-
NORTH CENTRAL INDIANA

CITY           SKY/WX    TMP DP  RH WIND       PRES   REMARKS
GOSHEN         CLEAR     49  39  68 CALM      29.99S
LOGANSPORT +   CLEAR     55  41  58 S3        30.01S
PERU/GRISSOM   CLEAR     56  40  53 S5        29.98F
ROCHESTER +    CLEAR     63  41  45 CALM      30.00S
SOUTH BEND     CLEAR     59  36  42 SE5       29.99S
WARSAW +       CLEAR     52  39  62 CALM      30.00S

$$

INZ006>009-017-018-025>027-240800-
NORTHEAST INDIANA

CITY           SKY/WX    TMP DP  RH WIND       PRES   REMARKS
ANGOLA *+      CLEAR     48  48 100 CALM      30.01S
AUBURN +       CLEAR     50  43  76 CALM      30.01S
FORT WAYNE     PTCLDY    53  45  74 CALM      30.01F
HUNTINGTON +   CLEAR     53  43  68 CALM      30.00S

$$

INZ028-029-035-036-043>045-051>053-240800-
WEST CENTRAL INDIANA

CITY           SKY/WX    TMP DP  RH WIND       PRES   REMARKS
CRAWFORDSVL +  CLEAR     54  45  72 SE5       30.00S
GREENCASTLE +  CLEAR     55  46  71 CALM      30.01S
LAFAYETTE      CLEAR     54  44  69 CALM      29.99S
TERRE HAUTE    PTCLDY    53  48  83 CALM      30.00R

$$

INZ030>032-037>040-046>048-054>057-064-065-240800-
CENTRAL INDIANA

CITY           SKY/WX    TMP DP  RH WIND       PRES   REMARKS
CP ATTERBURY + CLEAR     46  45  93 CALM      30.02S
FISHERS *+     CLEAR     50  46  87 CALM      30.00F
FRANKFORT +      N/A     59  31  35 CALM      30.01F
GREENWOOD *+   CLEAR     55  45  67 CALM      30.02S
INDIANAPOLIS   CLEAR     61  42  49 CALM      29.99F
-EAGLE CREEK   CLEAR     55  45  68 CALM      30.00F
KOKOMO *+      CLEAR     54  39  58 S3        30.00F
MARION +       CLEAR     56  44  62 CALM      30.01F
SHELBYVILLE    CLEAR     55  47  74 SE6       30.01F
ZIONSVILLE +   CLEAR     52  46  79 CALM      30.01F

$$

INZ033-034-041-042-049-050-058-059-240800-
EAST CENTRAL INDIANA

CITY           SKY/WX    TMP DP  RH WIND       PRES   REMARKS
MUNCIE         CLEAR     61  46  57 S5        30.01F

$$

INZ060-061-067>069-081>083-085>088-240800-
SOUTHWEST INDIANA

CITY           SKY/WX    TMP DP  RH WIND       PRES   REMARKS
EVANSVILLE     PTCLDY    59  49  69 CALM      30.01R
HUNTINGBURG *+ CLOUDY    61  45  55 CALM      30.01R
WASHINGTON +   CLOUDY    57  51  78 S7        30.00R

$$

INZ062-063-066-070>080-084-089>092-240800-
SOUTH CENTRAL AND SOUTHEAST INDIANA

CITY           SKY/WX    TMP DP  RH WIND       PRES   REMARKS
BEDFORD +      CLEAR     54  54 100 SE3       30.00F
BLOOMINGTON    CLEAR     51  46  83 CALM      30.00F
MADISON *+     CLEAR     52  50  93 E3        30.03F
NORTH VERNON + CLEAR    N/A N/A N/A CALM      30.02F
SEYMOUR +      CLEAR     54  52  94 CALM      30.01F

$$




USA.gov is the U.S. government's official web portal to all federal, state and local government web resources and services.